Miscellaneous Local Product
Issued by NWS Hastings, NE

Home | Current Version | Previous Version | Graphics & Text | Print | Product List | Glossary On
Versions: 1 2 3 4 5 6 7 8 9 10 11 12 13 14 15 16 17 18 19 20 21 22 23 24 25 26 27 28 29 30 31 32 33 34 35 36 37 38 39 40 41 42 43 44 45 46 47 48 49 50
263
AXUS43 KGID 171602
MISGRI

GID CWA HOURLY WEATHER ROUNDUP
NATIONAL WEATHER SERVICE HASTINGS NE
1000 AM CST TUE JAN 17 2017

NOTE: "FAIR" INDICATES FEW OR NO CLOUDS BELOW 12,000 FEET WITH NO
SIGNIFICANT WEATHER AND/OR OBSTRUCTIONS TO VISIBILITY.

...SOUTH CENTRAL NEBRASKA...

CITY           SKY/WX    TMP DP  RH WIND       PRES   REMARKS
GRAND ISLAND   NOT AVBL
HASTINGS       SUNNY     28  22  78 NW8       30.11R WCI  20
KEARNEY        SUNNY     28  21  74 CALM      30.10R
ORD            SUNNY     24  18  77 NW7       30.08R WCI  16
YORK           SUNNY     27  23  86 MISG      30.11R
AURORA         SUNNY     27  24  88 CALM      30.10R
LEXINGTON      SUNNY     29  23  77 W9        30.10R WCI  20
HOLDREGE       SUNNY     30  26  83 NW3       30.10R
HEBRON         SUNNY     28  25  86 NW5       30.13R WCI  23

...NEBRASKA PANHANDLE...

CITY           SKY/WX    TMP DP  RH WIND       PRES   REMARKS
CHADRON        SUNNY      9   4  80 W5        30.00F WCI   1
ALLIANCE       SUNNY     19  15  84 CALM      30.03R
SCOTTSBLUFF    CLOUDY    19  13  77 N3        30.05S
SIDNEY         CLOUDY    24  15  68 W7        30.07R WCI  16

...WESTERN AND NORTH CENTRAL NEBRASKA...

CITY           SKY/WX    TMP DP  RH WIND       PRES   REMARKS
VALENTINE      CLOUDY    26  17  68 W8        30.03S WCI  18
AINSWORTH      SUNNY     28  22  79 SW7       30.02F WCI  21
ONEILL         SUNNY     25  21  85 W8        30.05S WCI  17
BROKEN BOW     SUNNY     26  20  77 CALM      30.07R
IMPERIAL       SUNNY     26  17  68 W7        30.10S WCI  18
NORTH PLATTE   SUNNY     28  22  78 NW8       30.10R WCI  20
MCCOOK         SUNNY     28  22  78 W13       30.12R WCI  17

...EASTERN NEBRASKA...

CITY           SKY/WX    TMP DP  RH WIND       PRES   REMARKS
NORFOLK        SUNNY     22  17  81 W8        30.08R WCI  12
SO SIOUX CITY  CLOUDY    21  16  81 W13       30.09R WCI   9
TEKAMAH        CLOUDY    24  20  84 NW10      30.11R WCI  14
COLUMBUS       SUNNY     25  19  80 CALM      30.11R
ALBION         CLOUDY    22  19  86 NW3       30.08S FOG
OMAHA EPPLEY   CLOUDY    27  22  81 NW9       30.10R WCI  18
OFFUTT AFB     CLOUDY    28  27  99 W8        30.10R WCI  20
MILLARD        CLOUDY    28  24  85 NW9       30.11R WCI  20
LINCOLN        SUNNY     28  21  75 NW7       30.13R WCI  21
NEBRASKA CITY  CLOUDY    28  28 100 NW9       30.10R FOG     WCI  20
BEATRICE       SUNNY     29  25  84 NW6       30.12R WCI  23
FALLS CITY     CLOUDY    33  31  92 W9        30.10R WCI  25

...NORTHERN KANSAS...

CITY           SKY/WX    TMP DP  RH WIND       PRES   REMARKS
GOODLAND       SUNNY     29  22  75 W6        30.10S WCI  23
HILL CITY      SUNNY     32  26  78 W5        30.13S WCI  27
NORTON         SUNNY     34  25  69 W12       30.11R WCI  25
PHILLIPSBURG   SUNNY     32  27  80 W10       30.13S WCI  24
SMITH CENTER   SUNNY     28  25  86 W6        30.13S WCI  22
HAYS           CLOUDY    34  28  79 NW8       30.14R WCI  27
RUSSELL        CLOUDY    33  28  81 NW10      30.13R WCI  25
CONCORDIA      SUNNY     30  25  81 NW7       30.12S WCI  23
SALINA         PTSUNNY   36  27  69 NW7       30.16R WCI  30
TOPEKA         CLOUDY    36  31  82 NW12      30.12R WCI  28



USA.gov is the U.S. government's official web portal to all federal, state and local government web resources and services.